{"data":{"norad_id":53160,"epoch":"2026-05-25T02:16:10.141248Z","epoch_age_seconds":66795,"freshness":"FRESH","line1":"1 53160U 22083AE  26145.09456182  .00000657  00000+0  59359-4 0  9995","line2":"2 53160  53.2144 181.1246 0001154  75.1269 284.9851 15.08834848212898","mean_motion":15.08834848,"eccentricity":0.0001154,"inclination_deg":53.2144,"raan_deg":181.1246,"arg_perigee_deg":75.1269,"mean_anomaly_deg":284.9851,"bstar":5.9359e-5,"rev_number":21289,"period_min":95.437880554572,"perigee_km":538.96081139766,"apogee_km":540.55746182599,"semimajor_km":6917.8961366118,"source":"CELESTRAK","updated_at":"2026-05-25T13:38:17.321280Z"}}